Location: Poughquag
(41.6090°N, 73.6820°W)
Time: 19:53:26
(UTC-05:00)

A-11 Canister half - Pass Details

Date: 08 December 2023
Orbit: 1526 x 1682 km, 47.3° (Epoch: 23 February)

Event Time Altitude Azimuth Distance (km) Brightness Sun altitude
Rises 17:53:13 0° 232° (SW) 4,902 13.0 -16.1°
Reaches altitude 10° 17:56:22 10° 231° (SW) 3,926 12.2 -16.6°
Maximum altitude 18:06:27 76° 148° (SSE) 1,722 9.1 -18.4°
Enters shadow 18:12:50 27° 67° (ENE) 2,825 9.8 -19.6°
